ASTRA 1M

Last updated on Jan. 19, 2020, 4:37 a.m. UTC

1 33436U 08057A   20018.52509934  .00000115  00000-0  00000-0 0  9994
2 33436   0.0221 117.0418 0001043 131.1541  77.4017  1.00268587 22256
UTC
Height (km)
Latitude
Longitude
Inclination
Orbital Period
UTC large
Height (km)
Speed (km/s)
/
Latitude / Longitude
Inclination (degrees)
Orbital Period (minutes)
Azimuth
Elevation
Range (km)
Doppler Factor
iOS Compass Heading
iOS Angle

Next 30 passes for location: Hong Kong

Rise time Rise Azimuth (degrees) Set time Set Azimuth (degrees) Duration Max altitude (degrees)

No matching passes for this satellites